Location: Br�znic
(45.9167°N, 22.6500°E)
Time: 16:44:11
(UTC+00:00)

CSL-04 Rocket - Pass Details

Date: 03 March 2021
Orbit: 805 x 861 km, 98.9° (Epoch: 11 April)

Event Time Altitude Azimuth Distance (km) Brightness Sun altitude
Rises 16:40:43 0° 137° (SE) 3,426 6.5 -4.6°
Reaches altitude 10° 16:43:16 10° 129° (SE) 2,491 5.7 -5.1°
Maximum altitude 16:48:14 35° 65° (ENE) 1,351 4.3 -5.9°
Drops below altitude 10° 16:53:11 10° 1° (N) 2,485 6.1 -6.8°
Sets 16:55:43 0° 353° (N) 3,417 6.9 -7.2°
